Weather History for Vicksburg, MS

Change the Weather History Date:

Monday, July 2, 2012

  Actual Average Record
Temperature  
Mean Temperature 83 °F 81 °F  
Max Temperature 97 °F 91 °F 99 °F (1980)
Min Temperature 69 °F 70 °F 59 °F (2008)
Degree Days  
Heating Degree Days 0 0  
Month to date heating degree days 0 0  
Since 1 June heating degree days 0 0  
Since 1 July heating degree days 0 0  
Cooling Degree Days 18 16  
Month to date cooling degree days 36 32  
Year to date cooling degree days 1017 820  
Since 1 June cooling degree days 462 450  
Growing Degree Days 32 (Base 50)    
Moisture  
Dew Point 69 °F    
Average Humidity 71    
Maximum Humidity 100    
Minimum Humidity 41    
Precipitation  
Precipitation 0.00 in 0.12 in 4.32 in (1981)
Month to date precipitation 0.00 0.25  
Year to date precipitation 28.46 29.54  
Sea Level Pressure  
Sea Level Pressure 30.08 in    
Wind  
Wind Speed 1 mph (WSW)    
Max Wind Speed 8 mph    
Max Gust Speed 12 mph    
Visibility 10 miles    
Events      
T = Trace of Precipitation, MM = Missing Value Source: NWS Daily Summary

Daily Weather History Graph

Daily Weather History Graph

Search for Another Location

Airport:

Trip Planner

Search our weather history database for the weather conditions in past years. The results will help you decide how hot, cold, wet, or windy it might be!

Date:

Astronomy

Jul. 02, 2012 Rise Set
Actual Time 6:01 AM CDT 8:14 PM CDT
Civil Twilight 5:33 AM CDT 8:43 PM CDT
Nautical Twilight 4:58 AM CDT 9:17 PM CDT
Astronomical Twilight 4:21 AM CDT 9:55 PM CDT
Moon 7:19 PM CDT (7/2) 4:47 AM CDT (7/2)
Length of Visible Light 15h 10m
Length of Day
14h 13m
Waxing Gibbous, 98% of the Moon is Illuminated
Jul 2
Waxing Gibbous
Jul 3
Full
Jul 10
Last Quarter
Jul 18
New
Jul 26
First Quarter

Hourly Weather History & Observations

Time (CDT) Temp. Heat Index Dew Point Humidity Pressure Visibility Wind Dir Wind Speed Gust Speed Precip Events Conditions
12:53 AM 71.1 °F - 69.1 °F 93% 30.04 in 10.0 mi Calm Calm - N/A   Clear
1:53 AM 70.0 °F - 68.0 °F 93% 30.05 in 10.0 mi Calm Calm - N/A   Clear
2:53 AM 70.0 °F - 69.1 °F 97% 30.05 in 10.0 mi Calm Calm - N/A   Clear
3:53 AM 69.1 °F - 66.9 °F 93% 30.06 in 10.0 mi Calm Calm - N/A   Clear
4:53 AM 70.0 °F - 68.0 °F 93% 30.08 in 10.0 mi Calm Calm - N/A   Clear
5:53 AM 70.0 °F - 68.0 °F 93% 30.10 in 8.0 mi Calm Calm - N/A   Clear
6:53 AM 73.0 °F - 71.1 °F 93% 30.11 in 10.0 mi Calm Calm - N/A   Clear
7:53 AM 78.1 °F - 72.0 °F 81% 30.14 in 10.0 mi Calm Calm - N/A   Clear
8:53 AM 82.0 °F 86.3 °F 71.1 °F 69% 30.16 in 10.0 mi Calm Calm - N/A   Clear
9:53 AM 84.9 °F 90.1 °F 71.1 °F 63% 30.15 in 10.0 mi WNW 4.6 mph - N/A   Clear
10:53 AM 89.1 °F 95.0 °F 71.1 °F 55% 30.15 in 10.0 mi West 3.5 mph - N/A   Clear
11:53 AM 91.9 °F 96.9 °F 69.1 °F 47% 30.14 in 10.0 mi Calm Calm - N/A   Clear
12:53 PM 93.0 °F 99.0 °F 70.0 °F 47% 30.13 in 10.0 mi Variable 3.5 mph - N/A   Clear
1:53 PM 95.0 °F 99.5 °F 68.0 °F 41% 30.10 in 10.0 mi Calm Calm - N/A   Clear
2:53 PM 93.9 °F 97.5 °F 66.9 °F 41% 30.09 in 10.0 mi ESE 4.6 mph - N/A   Clear
3:53 PM 93.9 °F 97.0 °F 66.0 °F 40% 30.07 in 10.0 mi Calm Calm - N/A   Clear
4:53 PM 89.1 °F 95.0 °F 71.1 °F 55% 30.05 in 10.0 mi West 4.6 mph - N/A   Clear
6:53 PM 89.1 °F 96.0 °F 72.0 °F 57% 30.03 in 10.0 mi Calm Calm - N/A   Clear
7:53 PM 82.0 °F 85.5 °F 69.1 °F 65% 30.03 in 10.0 mi Calm Calm - N/A   Clear
8:53 PM 80.1 °F 83.6 °F 71.1 °F 74% 30.04 in 10.0 mi SE 4.6 mph - N/A   Clear
9:53 PM 73.9 °F - 70.0 °F 87% 30.04 in 10.0 mi Calm Calm - N/A   Clear
10:53 PM 73.0 °F - 70.0 °F 90% 30.05 in 10.0 mi Calm Calm - N/A   Clear
11:53 PM 71.1 °F - 68.0 °F 90% 30.06 in 10.0 mi Calm Calm - N/A   Clear